Location: Recife
(8.0585°S, 34.8848°W)
Time: 13:32:53
(UTC-03:00)

Vanguard 2 - Pass Details

Date: 14 April 2026
Orbit: 553 x 2895 km, 32.9° (Epoch: 13 May)

Event Time Altitude Azimuth Distance (km) Brightness Sun altitude
Rises 18:55:58 0° 318° (NW) 4,603 12.2 -24.9°
Reaches altitude 10° 18:58:39 10° 323° (NW) 3,894 11.6 -25.6°
Maximum altitude 19:09:29 58° 40° (NE) 2,552 9.8 -28.2°
Enters shadow 19:14:21 44° 90° (E) 3,159 10.0 -29.4°
